VK4TOM-13 Weather Reports


Display with metric or nautical units.
time (UTC)temp
F
wind
direction
speed
MPH
gust
MPH
rain 1hr
in
rain 24hr
in
rain mn
in
humidity
%
barometer
mb
20260508220514 57 135 0.0 1.0 0.00 0.00 0.00 70 1021.3
20260508215513 55 170 0.0 1.0 0.00 0.00 0.00 70 1021.2
20260508214512 53 149 0.0 1.0 0.00 0.00 0.00 70 1021.1
20260508213511 51 135 0.0 0.0 0.00 0.00 0.00 70 1021.3
20260508212509 50 45 0.0 0.0 0.00 0.00 0.00 70 1021.3
20260508211508 50 45 0.0 0.0 0.00 0.00 0.00 70 1021.3
20260508210508 49 45 0.0 0.0 0.00 0.00 0.00 70 1021.1
20260508205507 49 45 0.0 0.0 0.00 0.00 0.00 70 1020.9
20260508204505 49 45 0.0 0.0 0.00 0.00 0.00 70 1020.7
20260508203504 49 90 0.0 0.0 0.00 0.00 0.00 70 1020.4
20260508202503 49 90 0.0 0.0 0.00 0.00 0.00 70 1020.3
20260508201502 49 90 0.0 0.0 0.00 0.00 0.00 70 1020.1
20260508200501 49 45 0.0 0.0 0.00 0.00 0.00 70 1019.9
20260508195500 49 45 0.0 0.0 0.00 0.00 0.00 70 1019.8
20260508194459 50 45 0.0 0.0 0.00 0.00 0.00 70 1019.7
20260508193458 50 45 0.0 0.0 0.00 0.00 0.00 70 1019.6
20260508192457 51 45 0.0 0.0 0.00 0.00 0.00 70 1019.4
20260508191456 51 45 0.0 0.0 0.00 0.00 0.00 70 1019.1
20260508190455 51 45 0.0 0.0 0.00 0.00 0.00 70 1019.2
20260508185454 51 45 0.0 0.0 0.00 0.00 0.00 70 1019.0
20260508184452 51 45 0.0 0.0 0.00 0.00 0.00 70 1018.9
20260508183451 50 45 0.0 0.0 0.00 0.00 0.00 70 1018.9
20260508182450 50 45 0.0 0.0 0.00 0.00 0.00 70 1019.0
20260508181449 51 45 0.0 0.0 0.00 0.00 0.00 70 1018.9
20260508180448 51 90 0.0 0.0 0.00 0.00 0.00 70 1018.7
20260508175447 51 45 0.0 0.0 0.00 0.00 0.00 70 1018.7
20260508174446 51 90 0.0 0.0 0.00 0.00 0.00 70 1018.7
20260508173445 51 45 0.0 0.0 0.00 0.00 0.00 70 1018.7
20260508172444 52 45 0.0 0.0 0.00 0.00 0.00 70 1018.7
20260508171443 52 45 0.0 0.0 0.00 0.00 0.00 70 1018.8
20260508170442 52 45 0.0 0.0 0.00 0.00 0.00 70 1018.8
20260508165441 52 45 0.0 0.0 0.00 0.00 0.00 70 1018.8
20260508164440 53 45 0.0 0.0 0.00 0.00 0.00 70 1018.7
20260508163439 53 45 0.0 0.0 0.00 0.00 0.00 70 1019.0
20260508162438 53 45 0.0 0.0 0.00 0.00 0.00 70 1018.9
20260508161437 53 45 0.0 0.0 0.00 0.00 0.00 70 1019.0
20260508160435 53 45 0.0 0.0 0.00 0.00 0.00 70 1019.2
20260508155434 54 45 0.0 0.0 0.00 0.00 0.00 70 1019.4
20260508154433 54 45 0.0 0.0 0.00 0.00 0.00 70 1019.3
20260508153432 54 45 0.0 0.0 0.00 0.00 0.00 70 1019.3
20260508152431 55 45 0.0 0.0 0.00 0.00 0.00 70 1019.3
20260508150429 55 45 0.0 0.0 0.00 0.00 0.00 70 1019.4
20260508145428 55 45 0.0 0.0 0.00 0.00 0.00 70 1019.4
20260508144427 55 45 0.0 0.0 0.00 0.00 0.00 70 1019.3
20260508143426 54 45 0.0 0.0 0.00 0.00 0.00 70 1019.4
20260508142425 54 45 0.0 0.0 0.00 0.00 0.00 70 1019.5
20260508141424 54 45 0.0 0.0 0.00 0.00 0.00 70 1019.6
20260508140422 53 45 0.0 0.0 0.00 0.00 0.00 70 1019.7
20260508135421 53 65 0.0 0.0 0.00 0.00 0.00 70 1019.8
20260508134420 53 45 0.0 0.0 0.00 0.00 0.00 70 1019.6
20260508133419 53 45 0.0 0.0 0.00 0.00 0.00 70 1019.7
20260508132418 53 45 0.0 0.0 0.00 0.00 0.00 70 1019.9
20260508131417 53 95 0.0 0.0 0.00 0.00 0.00 70 1020.0
20260508130416 53 45 0.0 0.0 0.00 0.00 0.00 70 1020.0
20260508125415 54 45 0.0 0.0 0.00 0.00 0.00 70 1020.0
20260508124414 54 45 0.0 0.0 0.00 0.00 0.00 70 1019.9
20260508123413 54 45 0.0 0.0 0.00 0.00 0.00 70 1019.9
20260508122412 55 45 0.0 0.0 0.00 0.00 0.00 70 1020.0
20260508121411 55 45 0.0 0.0 0.00 0.00 0.00 70 1020.1
20260508120410 55 45 0.0 0.0 0.00 0.00 0.00 70 1020.0
20260508115409 55 45 0.0 0.0 0.00 0.00 0.00 66 1019.9
20260508114408 56 45 0.0 0.0 0.00 0.00 0.00 63 1020.0
20260508113407 56 45 0.0 0.0 0.00 0.00 0.00 61 1020.0
20260508112405 56 45 0.0 0.0 0.00 0.00 0.00 58 1020.0
20260508111404 57 45 0.0 0.0 0.00 0.00 0.00 56 1020.1
20260508110403 57 45 0.0 0.0 0.00 0.00 0.00 53 1020.1
20260508105402 58 45 0.0 0.0 0.00 0.00 0.00 51 1020.0
20260508104401 58 45 0.0 0.0 0.00 0.00 0.00 50 1019.9
20260508103400 58 45 0.0 0.0 0.00 0.00 0.00 49 1019.9
20260508102359 59 45 0.0 0.0 0.00 0.00 0.00 49 1019.7
20260508101358 60 45 0.0 0.0 0.00 0.00 0.00 47 1019.7
20260508100357 60 45 0.0 0.0 0.00 0.00 0.00 46 1019.5
20260508095356 61 45 0.0 0.0 0.00 0.00 0.00 45 1019.3
20260508094355 61 45 0.0 0.0 0.00 0.00 0.00 43 1019.2
20260508093354 62 45 0.0 0.0 0.00 0.00 0.00 42 1019.0
20260508092352 62 45 0.0 0.0 0.00 0.00 0.00 42 1018.9
20260508091351 62 135 0.0 0.0 0.00 0.00 0.00 41 1019.0
20260508090350 62 45 0.0 0.0 0.00 0.00 0.00 40 1018.8
20260508085350 63 45 0.0 0.0 0.00 0.00 0.00 40 1018.6
20260508084348 63 90 0.0 0.0 0.00 0.00 0.00 38 1018.4
20260508083347 64 45 0.0 0.0 0.00 0.00 0.00 37 1018.2
20260508082346 65 45 0.0 0.0 0.00 0.00 0.00 36 1018.1
20260508081345 65 169 0.0 0.0 0.00 0.00 0.00 35 1017.9
20260508080344 67 55 0.0 0.0 0.00 0.00 0.00 33 1017.9
20260508075343 68 45 0.0 0.0 0.00 0.00 0.00 31 1017.7
20260508074342 69 45 0.0 0.0 0.00 0.00 0.00 30 1017.6
20260508073341 70 45 0.0 0.0 0.00 0.00 0.00 28 1017.3
20260508072340 72 45 0.0 0.0 0.00 0.00 0.00 26 1017.1
20260508071339 73 45 0.0 0.0 0.00 0.00 0.00 23 1017.0
20260508070338 74 185 0.0 0.0 0.00 0.00 0.00 23 1016.8
20260508065337 75 85 0.0 0.0 0.00 0.00 0.00 21 1016.5
20260508064335 76 101 0.0 1.0 0.00 0.00 0.00 21 1016.4
20260508063334 76 65 1.0 2.0 0.00 0.00 0.00 20 1016.4
20260508062333 76 82 0.0 3.0 0.00 0.00 0.00 20 1016.2
20260508061332 76 226 1.0 3.0 0.00 0.00 0.00 19 1016.2
20260508060331 77 140 1.0 1.0 0.00 0.00 0.00 19 1016.2
20260508055330 78 152 2.0 2.0 0.00 0.00 0.00 18 1016.1
20260508054329 79 246 0.0 4.0 0.00 0.00 0.00 18 1016.1
20260508053328 81 146 3.0 3.0 0.00 0.00 0.00 17 1016.0
20260508052327 83 109 0.0 2.0 0.00 0.00 0.00 16 1015.9
20260508051326 84 90 0.0 2.0 0.00 0.00 0.00 16 1015.8
20260508050325 83 79 0.0 3.0 0.00 0.00 0.00 16 1015.9
20260508045324 83 143 0.0 4.0 0.00 0.00 0.00 17 1016.0
20260508044322 83 178 2.0 4.0 0.00 0.00 0.00 17 1016.1
20260508043322 83 132 3.0 4.0 0.00 0.00 0.00 18 1016.1
20260508042321 83 71 1.0 4.0 0.00 0.00 0.00 17 1016.1
20260508041320 82 128 0.0 3.0 0.00 0.00 0.00 18 1016.3
20260508040318 83 141 3.0 3.0 0.00 0.00 0.00 18 1016.4
20260508035317 82 92 1.0 4.0 0.00 0.00 0.00 20 1016.6
20260508034316 82 154 2.0 3.0 0.00 0.00 0.00 21 1016.8
20260508033315 81 240 0.0 4.0 0.00 0.00 0.00 21 1016.9
20260508031313 80 205 0.0 4.0 0.00 0.00 0.00 22 1017.2
20260508000845 72 95 7.0 7.0 0.00 0.00 0.00 41 1020.6
20260507233245 71 283 1.0 6.0 0.00 0.00 0.00 54 1020.8
20260507232244 70 127 2.0 6.0 0.00 0.00 0.00 59 1020.9
20260507230242 69 189 2.0 4.0 0.00 0.00 0.00 70 1020.8
20260507225241 68 90 2.0 3.0 0.00 0.00 0.00 70 1020.7
20260507224240 67 228 1.0 3.0 0.00 0.00 0.00 70 1020.7
20260507223239 67 150 2.0 3.0 0.00 0.00 0.00 70 1020.5
20260507222238 65 152 1.0 3.0 0.00 0.00 0.00 70 1020.5
20260507221237 64 310 0.0 3.0 0.00 0.00 0.00 70 1020.5